Terminal Aerodrome Forecast
Issued by NWS New Orleans/Baton Rouge, LA

Home | Current Version | Previous Version | Text Only | Print | Product List | Glossary On
Versions: 1 2 3 4 5 6 7 8 9 10 11 12 13
000
FTUS44 KLIX 181720
TAFBTR
TAF
KBTR 181720Z 1818/1918 29006KT P6SM VCTS SCT035CB
     FM190000 VRB03KT P6SM SCT020
     FM191700 30004KT P6SM BKN030=

USA.gov is the U.S. government's official web portal to all federal, state and local government web resources and services.